Year,Month,Day,Hour,Minute,Value (Times are PST for temperature in C)
2016,06,04,00,00,14.20
2016,06,04,00,01,14.20
2016,06,04,00,02,14.20
2016,06,04,00,03,14.20
2016,06,04,00,04,14.20
2016,06,04,00,05,14.20
2016,06,04,00,06,14.20
2016,06,04,00,07,14.20
2016,06,04,00,08,14.20
2016,06,04,00,09,14.10
2016,06,04,00,10,14.10
2016,06,04,00,11,14.00
2016,06,04,00,12,13.90
2016,06,04,00,13,13.80
2016,06,04,00,14,13.80
2016,06,04,00,15,13.80
2016,06,04,00,16,13.80
2016,06,04,00,17,13.90
2016,06,04,00,18,13.90
2016,06,04,00,19,14.00
2016,06,04,00,20,14.10
2016,06,04,00,21,14.20
2016,06,04,00,22,14.20
2016,06,04,00,23,14.30
2016,06,04,00,24,14.30
2016,06,04,00,25,14.30
2016,06,04,00,26,14.30
2016,06,04,00,27,14.30
2016,06,04,00,28,14.30
2016,06,04,00,29,14.20
2016,06,04,00,30,14.10
2016,06,04,00,31,14.00
2016,06,04,00,32,13.90
2016,06,04,00,33,13.90
2016,06,04,00,34,13.80
2016,06,04,00,35,13.70
2016,06,04,00,36,13.70
2016,06,04,00,37,13.70
2016,06,04,00,38,13.70
2016,06,04,00,39,13.70
2016,06,04,00,40,13.70
2016,06,04,00,41,13.70
2016,06,04,00,42,13.60
2016,06,04,00,43,13.60
2016,06,04,00,44,13.50
2016,06,04,00,45,13.40
2016,06,04,00,46,13.30
2016,06,04,00,47,13.30
2016,06,04,00,48,13.20
2016,06,04,00,49,13.20
2016,06,04,00,50,13.20
2016,06,04,00,51,13.20
2016,06,04,00,52,13.20
2016,06,04,00,53,13.20
2016,06,04,00,54,13.20
2016,06,04,00,55,13.20
2016,06,04,00,56,13.30
2016,06,04,00,57,13.30
2016,06,04,00,58,13.30
2016,06,04,00,59,13.40
2016,06,04,01,00,13.40
2016,06,04,01,01,13.30
2016,06,04,01,02,13.30
2016,06,04,01,03,13.20
2016,06,04,01,04,13.20
2016,06,04,01,05,13.20
2016,06,04,01,06,13.20
2016,06,04,01,07,13.20
2016,06,04,01,08,13.20
2016,06,04,01,09,13.20
2016,06,04,01,10,13.20
2016,06,04,01,11,13.10
2016,06,04,01,12,13.10
2016,06,04,01,13,13.00
2016,06,04,01,14,13.00
2016,06,04,01,15,12.90
2016,06,04,01,16,12.90
2016,06,04,01,17,12.90
2016,06,04,01,18,12.90
2016,06,04,01,19,12.90
2016,06,04,01,20,12.90
2016,06,04,01,21,12.90
2016,06,04,01,22,12.90
2016,06,04,01,23,12.90
2016,06,04,01,24,12.90
2016,06,04,01,25,12.90
2016,06,04,01,26,12.90
2016,06,04,01,27,12.90
2016,06,04,01,28,12.90
2016,06,04,01,29,12.90
2016,06,04,01,30,12.90
2016,06,04,01,31,12.80
2016,06,04,01,32,12.80
2016,06,04,01,33,12.80
2016,06,04,01,34,12.80
2016,06,04,01,35,12.80
2016,06,04,01,36,12.90
2016,06,04,01,37,12.90
2016,06,04,01,38,12.90
2016,06,04,01,39,12.90
2016,06,04,01,40,12.90
2016,06,04,01,41,12.90
2016,06,04,01,42,12.90
2016,06,04,01,43,12.90
2016,06,04,01,44,12.80
2016,06,04,01,45,12.80
2016,06,04,01,46,12.80
2016,06,04,01,47,12.70
2016,06,04,01,48,12.70
2016,06,04,01,49,12.60
2016,06,04,01,50,12.60
2016,06,04,01,51,12.60
2016,06,04,01,52,12.60
2016,06,04,01,53,12.60
2016,06,04,01,54,12.60
2016,06,04,01,55,12.60
2016,06,04,01,56,12.60
2016,06,04,01,57,12.60
2016,06,04,01,58,12.60
2016,06,04,01,59,12.50
2016,06,04,02,00,12.50
2016,06,04,02,01,12.40
2016,06,04,02,02,12.30
2016,06,04,02,03,12.30
2016,06,04,02,04,12.30
2016,06,04,02,05,12.20
2016,06,04,02,06,12.20
2016,06,04,02,07,12.10
2016,06,04,02,08,12.00
2016,06,04,02,09,12.00
2016,06,04,02,10,12.00
2016,06,04,02,11,12.00
2016,06,04,02,12,12.00
2016,06,04,02,13,12.10
2016,06,04,02,14,12.00
2016,06,04,02,15,12.00
2016,06,04,02,16,11.90
2016,06,04,02,17,11.90
2016,06,04,02,18,11.80
2016,06,04,02,19,11.70
2016,06,04,02,20,11.70
2016,06,04,02,21,11.70
2016,06,04,02,22,11.70
2016,06,04,02,23,11.70
2016,06,04,02,24,11.70
2016,06,04,02,25,11.60
2016,06,04,02,26,11.60
2016,06,04,02,27,11.60
2016,06,04,02,28,11.60
2016,06,04,02,29,11.60
2016,06,04,02,30,11.60
2016,06,04,02,31,11.50
2016,06,04,02,32,11.50
2016,06,04,02,33,11.50
2016,06,04,02,34,11.40
2016,06,04,02,35,11.40
2016,06,04,02,36,11.40
2016,06,04,02,37,11.40
2016,06,04,02,38,11.40
2016,06,04,02,39,11.40
2016,06,04,02,40,11.50
2016,06,04,02,41,11.60
2016,06,04,02,42,11.70
2016,06,04,02,43,11.80
2016,06,04,02,44,11.90
2016,06,04,02,45,11.90
2016,06,04,02,46,12.00
2016,06,04,02,47,12.00
2016,06,04,02,48,11.90
2016,06,04,02,49,11.90
2016,06,04,02,50,11.80
2016,06,04,02,51,11.80
2016,06,04,02,52,11.80
2016,06,04,02,53,11.80
2016,06,04,02,54,11.80
2016,06,04,02,55,11.80
2016,06,04,02,56,11.70
2016,06,04,02,57,11.60
2016,06,04,02,58,11.60
2016,06,04,02,59,11.50
2016,06,04,03,00,11.40
2016,06,04,03,01,11.40
2016,06,04,03,02,11.30
2016,06,04,03,03,11.30
2016,06,04,03,04,11.30
2016,06,04,03,05,11.30
2016,06,04,03,06,11.30
2016,06,04,03,07,11.40
2016,06,04,03,08,11.60
2016,06,04,03,09,11.70
2016,06,04,03,10,11.80
2016,06,04,03,11,11.90
2016,06,04,03,12,11.90
2016,06,04,03,13,12.00
2016,06,04,03,14,12.10
2016,06,04,03,15,12.20
2016,06,04,03,16,12.20
2016,06,04,03,17,12.20
2016,06,04,03,18,12.20
2016,06,04,03,19,12.20
2016,06,04,03,20,12.20
2016,06,04,03,21,12.20
2016,06,04,03,22,12.20
2016,06,04,03,23,12.20
2016,06,04,03,24,12.10
2016,06,04,03,25,12.10
2016,06,04,03,26,12.10
2016,06,04,03,27,12.10
2016,06,04,03,28,12.10
2016,06,04,03,29,12.10
2016,06,04,03,30,12.10
2016,06,04,03,31,12.10
2016,06,04,03,32,12.10
2016,06,04,03,33,12.00
2016,06,04,03,34,11.90
2016,06,04,03,35,11.80
2016,06,04,03,36,11.70
2016,06,04,03,37,11.60
2016,06,04,03,38,11.60
2016,06,04,03,39,11.60
2016,06,04,03,40,11.60
2016,06,04,03,41,11.60
2016,06,04,03,42,11.60
2016,06,04,03,43,11.70
2016,06,04,03,44,11.80
2016,06,04,03,45,11.80
2016,06,04,03,46,11.80
2016,06,04,03,47,11.70
2016,06,04,03,48,11.60
2016,06,04,03,49,11.50
2016,06,04,03,50,11.40
2016,06,04,03,51,11.30
2016,06,04,03,52,11.20
2016,06,04,03,53,11.10
2016,06,04,03,54,11.10
2016,06,04,03,55,11.10
2016,06,04,03,56,11.00
2016,06,04,03,57,11.00
2016,06,04,03,58,10.90
2016,06,04,03,59,10.90
2016,06,04,04,00,10.80
2016,06,04,04,01,10.80
2016,06,04,04,02,10.80
2016,06,04,04,03,10.80
2016,06,04,04,04,10.80
2016,06,04,04,05,10.80
2016,06,04,04,06,10.80
2016,06,04,04,07,10.80
2016,06,04,04,08,10.80
2016,06,04,04,09,10.90
2016,06,04,04,10,11.00
2016,06,04,04,11,11.10
2016,06,04,04,12,11.20
2016,06,04,04,13,11.20
2016,06,04,04,14,11.20
2016,06,04,04,15,11.20
2016,06,04,04,16,11.10
2016,06,04,04,17,11.10
2016,06,04,04,18,11.00
2016,06,04,04,19,10.90
2016,06,04,04,20,10.90
2016,06,04,04,21,10.90
2016,06,04,04,22,10.80
2016,06,04,04,23,10.80
2016,06,04,04,24,10.90
2016,06,04,04,25,10.90
2016,06,04,04,26,10.90
2016,06,04,04,27,10.90
2016,06,04,04,28,10.90
2016,06,04,04,29,11.00
2016,06,04,04,30,11.10
2016,06,04,04,31,11.20
2016,06,04,04,32,11.20
2016,06,04,04,33,11.30
2016,06,04,04,34,11.40
2016,06,04,04,35,11.40
2016,06,04,04,36,11.40
2016,06,04,04,37,11.50
2016,06,04,04,38,11.60
2016,06,04,04,39,11.60
2016,06,04,04,40,11.60
2016,06,04,04,41,11.70
2016,06,04,04,42,11.70
2016,06,04,04,43,11.70
2016,06,04,04,44,11.80
2016,06,04,04,45,11.80
2016,06,04,04,46,11.80
2016,06,04,04,47,11.80
2016,06,04,04,48,11.80
2016,06,04,04,49,11.80
2016,06,04,04,50,11.70
2016,06,04,04,51,11.70
2016,06,04,04,52,11.70
2016,06,04,04,53,11.70
2016,06,04,04,54,11.70
2016,06,04,04,55,11.60
2016,06,04,04,56,11.50
2016,06,04,04,57,11.40
2016,06,04,04,58,11.30
2016,06,04,04,59,11.10
2016,06,04,05,00,11.10
2016,06,04,05,01,11.10
2016,06,04,05,02,11.00
2016,06,04,05,03,11.10
2016,06,04,05,04,11.10
2016,06,04,05,05,11.10
2016,06,04,05,06,11.10
2016,06,04,05,07,11.00
2016,06,04,05,08,11.00
2016,06,04,05,09,11.00
2016,06,04,05,10,11.10
2016,06,04,05,11,11.20
2016,06,04,05,12,11.20
2016,06,04,05,13,11.40
2016,06,04,05,14,11.40
2016,06,04,05,15,11.30
2016,06,04,05,16,11.10
2016,06,04,05,17,11.00
2016,06,04,05,18,10.90
2016,06,04,05,19,11.00
2016,06,04,05,20,11.10
2016,06,04,05,21,11.20
2016,06,04,05,22,11.20
2016,06,04,05,23,11.30
2016,06,04,05,24,11.40
2016,06,04,05,25,11.50
2016,06,04,05,26,11.50
2016,06,04,05,27,11.60
2016,06,04,05,28,11.60
2016,06,04,05,29,11.60
2016,06,04,05,30,11.60
2016,06,04,05,31,11.60
2016,06,04,05,32,11.60
2016,06,04,05,33,11.60
2016,06,04,05,34,11.60
2016,06,04,05,35,11.70
2016,06,04,05,36,11.70
2016,06,04,05,37,11.80
2016,06,04,05,38,11.80
2016,06,04,05,39,11.70
2016,06,04,05,40,11.70
2016,06,04,05,41,11.70
2016,06,04,05,42,11.70
2016,06,04,05,43,11.80
2016,06,04,05,44,11.80
2016,06,04,05,45,11.80
2016,06,04,05,46,11.90
2016,06,04,05,47,11.90
2016,06,04,05,48,11.90
2016,06,04,05,49,11.90
2016,06,04,05,50,11.90
2016,06,04,05,51,11.90
2016,06,04,05,52,11.90
2016,06,04,05,53,12.00
2016,06,04,05,54,12.10
2016,06,04,05,55,12.10
2016,06,04,05,56,12.20
2016,06,04,05,57,12.20
2016,06,04,05,58,12.20
2016,06,04,05,59,12.20
2016,06,04,06,00,12.20
2016,06,04,06,01,12.20
2016,06,04,06,02,12.20
2016,06,04,06,03,12.20
2016,06,04,06,04,12.20
2016,06,04,06,05,12.10
2016,06,04,06,06,12.10
2016,06,04,06,07,12.10
2016,06,04,06,08,12.10
2016,06,04,06,09,12.10
2016,06,04,06,10,12.20
2016,06,04,06,11,12.20
2016,06,04,06,12,12.20
2016,06,04,06,13,12.30
2016,06,04,06,14,12.30
2016,06,04,06,15,12.40
2016,06,04,06,16,12.40
2016,06,04,06,17,12.40
2016,06,04,06,18,12.40
2016,06,04,06,19,12.40
2016,06,04,06,20,12.40
2016,06,04,06,21,12.50
2016,06,04,06,22,12.50
2016,06,04,06,23,12.60
2016,06,04,06,24,12.60
2016,06,04,06,25,12.60
2016,06,04,06,26,12.70
2016,06,04,06,27,12.70
2016,06,04,06,28,12.80
2016,06,04,06,29,12.80
2016,06,04,06,30,12.80
2016,06,04,06,31,12.80
2016,06,04,06,32,12.90
2016,06,04,06,33,12.90
2016,06,04,06,34,12.90
2016,06,04,06,35,12.90
2016,06,04,06,36,12.90
2016,06,04,06,37,12.90
2016,06,04,06,38,13.00
2016,06,04,06,39,13.00
2016,06,04,06,40,13.10
2016,06,04,06,41,13.10
2016,06,04,06,42,13.20
2016,06,04,06,43,13.20
2016,06,04,06,44,13.30
2016,06,04,06,45,13.40
2016,06,04,06,46,13.40
2016,06,04,06,47,13.50
2016,06,04,06,48,13.50
2016,06,04,06,49,13.60
2016,06,04,06,50,13.70
2016,06,04,06,51,13.70
2016,06,04,06,52,13.70
2016,06,04,06,53,13.70
2016,06,04,06,54,13.60
2016,06,04,06,55,13.60
2016,06,04,06,56,13.60
2016,06,04,06,57,13.60
2016,06,04,06,58,13.60
2016,06,04,06,59,13.60
2016,06,04,07,00,13.60
2016,06,04,07,01,13.50
2016,06,04,07,02,13.50
2016,06,04,07,03,13.50
2016,06,04,07,04,13.50
2016,06,04,07,05,13.60
2016,06,04,07,06,13.60
2016,06,04,07,07,13.60
2016,06,04,07,08,13.60
2016,06,04,07,09,13.60
2016,06,04,07,10,13.70
2016,06,04,07,11,13.70
2016,06,04,07,12,13.80
2016,06,04,07,13,13.80
2016,06,04,07,14,13.90
2016,06,04,07,15,14.00
2016,06,04,07,16,14.10
2016,06,04,07,17,14.10
2016,06,04,07,18,14.20
2016,06,04,07,19,14.30
2016,06,04,07,20,14.30
2016,06,04,07,21,14.40
2016,06,04,07,22,14.40
2016,06,04,07,23,14.40
2016,06,04,07,24,14.50
2016,06,04,07,25,14.50
2016,06,04,07,26,14.50
2016,06,04,07,27,14.50
2016,06,04,07,28,14.50
2016,06,04,07,29,14.50
2016,06,04,07,30,14.40
2016,06,04,07,31,14.40
2016,06,04,07,32,14.30
2016,06,04,07,33,14.30
2016,06,04,07,34,14.20
2016,06,04,07,35,14.20
2016,06,04,07,36,14.10
2016,06,04,07,37,14.10
2016,06,04,07,38,14.10
2016,06,04,07,39,14.10
2016,06,04,07,40,14.10
2016,06,04,07,41,14.10
2016,06,04,07,42,14.10
2016,06,04,07,43,14.10
2016,06,04,07,44,14.10
2016,06,04,07,45,14.10
2016,06,04,07,46,14.10
2016,06,04,07,47,14.10
2016,06,04,07,48,14.10
2016,06,04,07,49,14.20
2016,06,04,07,50,14.20
2016,06,04,07,51,14.20
2016,06,04,07,52,14.20
2016,06,04,07,53,14.20
2016,06,04,07,54,14.20
2016,06,04,07,55,14.30
2016,06,04,07,56,14.30
2016,06,04,07,57,14.30
2016,06,04,07,58,14.30
2016,06,04,07,59,14.40
2016,06,04,08,00,14.40
2016,06,04,08,01,14.40
2016,06,04,08,02,14.40
2016,06,04,08,03,14.40
2016,06,04,08,04,14.40
2016,06,04,08,05,14.40
2016,06,04,08,06,14.50
2016,06,04,08,07,14.50
2016,06,04,08,08,14.50
2016,06,04,08,09,14.50
2016,06,04,08,10,14.60
2016,06,04,08,11,14.60
2016,06,04,08,12,14.60
2016,06,04,08,13,14.70
2016,06,04,08,14,14.70
2016,06,04,08,15,14.80
2016,06,04,08,16,14.80
2016,06,04,08,17,14.80
2016,06,04,08,18,14.80
2016,06,04,08,19,14.90
2016,06,04,08,20,14.90
2016,06,04,08,21,14.90
2016,06,04,08,22,14.90
2016,06,04,08,23,14.90
2016,06,04,08,24,15.00
2016,06,04,08,25,15.00
2016,06,04,08,26,15.00
2016,06,04,08,27,15.00
2016,06,04,08,28,15.00
2016,06,04,08,29,15.00
2016,06,04,08,30,15.00
2016,06,04,08,31,15.10
2016,06,04,08,32,15.10
2016,06,04,08,33,15.10
2016,06,04,08,34,15.20
2016,06,04,08,35,15.20
2016,06,04,08,36,15.30
2016,06,04,08,37,15.30
2016,06,04,08,38,15.30
2016,06,04,08,39,15.40
2016,06,04,08,40,15.50
2016,06,04,08,41,15.60
2016,06,04,08,42,15.60
2016,06,04,08,43,15.70
2016,06,04,08,44,15.80
2016,06,04,08,45,15.80
2016,06,04,08,46,15.80
2016,06,04,08,47,15.90
2016,06,04,08,48,15.90
2016,06,04,08,49,15.90
2016,06,04,08,50,15.90
2016,06,04,08,51,15.90
2016,06,04,08,52,16.00
2016,06,04,08,53,16.10
2016,06,04,08,54,16.10
2016,06,04,08,55,16.10
2016,06,04,08,56,16.10
2016,06,04,08,57,16.20
2016,06,04,08,58,16.20
2016,06,04,08,59,16.20
2016,06,04,09,00,16.20
2016,06,04,09,01,16.30
2016,06,04,09,02,16.30
2016,06,04,09,03,16.30
2016,06,04,09,04,16.40
2016,06,04,09,05,16.40
2016,06,04,09,06,16.50
2016,06,04,09,07,16.60
2016,06,04,09,08,16.60
2016,06,04,09,09,16.60
2016,06,04,09,10,16.70
2016,06,04,09,11,16.70
2016,06,04,09,12,16.60
2016,06,04,09,13,16.60
2016,06,04,09,14,16.60
2016,06,04,09,15,16.60
2016,06,04,09,16,16.60
2016,06,04,09,17,16.60
2016,06,04,09,18,16.50
2016,06,04,09,19,16.50
2016,06,04,09,20,16.50
2016,06,04,09,21,16.50
2016,06,04,09,22,16.50
2016,06,04,09,23,16.50
2016,06,04,09,24,16.50
2016,06,04,09,25,16.50
2016,06,04,09,26,16.50
2016,06,04,09,27,16.50
2016,06,04,09,28,16.50
2016,06,04,09,29,16.50
2016,06,04,09,30,16.50
2016,06,04,09,31,16.60
2016,06,04,09,32,16.60
2016,06,04,09,33,16.60
2016,06,04,09,34,16.70
2016,06,04,09,35,16.80
2016,06,04,09,36,16.80
2016,06,04,09,37,16.90
2016,06,04,09,38,17.00
2016,06,04,09,39,17.00
2016,06,04,09,40,17.10
2016,06,04,09,41,17.10
2016,06,04,09,42,17.10
2016,06,04,09,43,17.10
2016,06,04,09,44,17.20
2016,06,04,09,45,17.20
2016,06,04,09,46,17.30
2016,06,04,09,47,17.40
2016,06,04,09,48,17.40
2016,06,04,09,49,17.40
2016,06,04,09,50,17.40
2016,06,04,09,51,17.40
2016,06,04,09,52,17.50
2016,06,04,09,53,17.50
2016,06,04,09,54,17.50
2016,06,04,09,55,17.60
2016,06,04,09,56,17.60
2016,06,04,09,57,17.70
2016,06,04,09,58,17.70
2016,06,04,09,59,17.70
2016,06,04,10,00,17.80
2016,06,04,10,01,17.80
2016,06,04,10,02,17.80
2016,06,04,10,03,17.80
2016,06,04,10,04,17.80
2016,06,04,10,05,17.70
2016,06,04,10,06,17.70
2016,06,04,10,07,17.70
2016,06,04,10,08,17.70
2016,06,04,10,09,17.70
2016,06,04,10,10,17.70
2016,06,04,10,11,17.80
2016,06,04,10,12,17.80
2016,06,04,10,13,17.90
2016,06,04,10,14,17.90
2016,06,04,10,15,18.00
2016,06,04,10,16,18.00
2016,06,04,10,17,18.10
2016,06,04,10,18,18.10
2016,06,04,10,19,18.20
2016,06,04,10,20,18.30
2016,06,04,10,21,18.30
2016,06,04,10,22,18.40
2016,06,04,10,23,18.40
2016,06,04,10,24,18.40
2016,06,04,10,25,18.50
2016,06,04,10,26,18.50
2016,06,04,10,27,18.50
2016,06,04,10,28,18.50
2016,06,04,10,29,18.60
2016,06,04,10,30,18.60
2016,06,04,10,31,18.70
2016,06,04,10,32,18.70
2016,06,04,10,33,18.80
2016,06,04,10,34,18.80
2016,06,04,10,35,18.80
2016,06,04,10,36,18.90
2016,06,04,10,37,18.90
2016,06,04,10,38,19.00
2016,06,04,10,39,19.10
2016,06,04,10,40,19.10
2016,06,04,10,41,19.00
2016,06,04,10,42,19.00
2016,06,04,10,43,19.00
2016,06,04,10,44,19.00
2016,06,04,10,45,19.00
2016,06,04,10,46,19.10
2016,06,04,10,47,19.10
2016,06,04,10,48,19.20
2016,06,04,10,49,19.30
2016,06,04,10,50,19.40
2016,06,04,10,51,19.40
2016,06,04,10,52,19.50
2016,06,04,10,53,19.60
2016,06,04,10,54,19.70
2016,06,04,10,55,19.70
2016,06,04,10,56,19.70
2016,06,04,10,57,19.60
2016,06,04,10,58,19.60
2016,06,04,10,59,19.70
2016,06,04,11,00,19.70
2016,06,04,11,01,19.80
2016,06,04,11,02,19.80
2016,06,04,11,03,19.90
2016,06,04,11,04,19.90
2016,06,04,11,05,20.00
2016,06,04,11,06,20.00
2016,06,04,11,07,19.80
2016,06,04,11,08,19.60
2016,06,04,11,09,19.40
2016,06,04,11,10,19.40
2016,06,04,11,11,19.30
2016,06,04,11,12,19.30
2016,06,04,11,13,19.30
2016,06,04,11,14,19.30
2016,06,04,11,15,19.30
2016,06,04,11,16,19.30
2016,06,04,11,17,19.30
2016,06,04,11,18,19.30
2016,06,04,11,19,19.30
2016,06,04,11,20,19.30
2016,06,04,11,21,19.30
2016,06,04,11,22,19.40
2016,06,04,11,23,19.60
2016,06,04,11,24,19.70
2016,06,04,11,25,19.80
2016,06,04,11,26,19.80
2016,06,04,11,27,19.90
2016,06,04,11,28,20.00
2016,06,04,11,29,20.10
2016,06,04,11,30,20.10
2016,06,04,11,31,20.20
2016,06,04,11,32,20.30
2016,06,04,11,33,20.40
2016,06,04,11,34,20.40
2016,06,04,11,35,20.50
2016,06,04,11,36,20.50
2016,06,04,11,37,20.60
2016,06,04,11,38,20.60
2016,06,04,11,39,20.70
2016,06,04,11,40,20.70
2016,06,04,11,41,20.70
2016,06,04,11,42,20.60
2016,06,04,11,43,20.60
2016,06,04,11,44,20.60
2016,06,04,11,45,20.60
2016,06,04,11,46,20.60
2016,06,04,11,47,20.60
2016,06,04,11,48,20.50
2016,06,04,11,49,20.40
2016,06,04,11,50,20.40
2016,06,04,11,51,20.40
2016,06,04,11,52,20.40
2016,06,04,11,53,20.40
2016,06,04,11,54,20.40
2016,06,04,11,55,20.40
2016,06,04,11,56,20.40
2016,06,04,11,57,20.50
2016,06,04,11,58,20.50
2016,06,04,11,59,20.60
2016,06,04,12,00,20.70
2016,06,04,12,01,20.70
2016,06,04,12,02,20.80
2016,06,04,12,03,20.90
2016,06,04,12,04,20.90
2016,06,04,12,05,21.00
2016,06,04,12,06,21.00
2016,06,04,12,07,21.10
2016,06,04,12,08,21.20
2016,06,04,12,09,21.40
2016,06,04,12,10,21.50
2016,06,04,12,11,21.60
2016,06,04,12,12,21.70
2016,06,04,12,13,21.80
2016,06,04,12,14,21.80
2016,06,04,12,15,21.80
2016,06,04,12,16,21.80
2016,06,04,12,17,21.80
2016,06,04,12,18,21.80
2016,06,04,12,19,21.80
2016,06,04,12,20,21.80
2016,06,04,12,21,21.70
2016,06,04,12,22,21.70
2016,06,04,12,23,21.70
2016,06,04,12,24,21.70
2016,06,04,12,25,21.70
2016,06,04,12,26,21.70
2016,06,04,12,27,21.70
2016,06,04,12,28,21.80
2016,06,04,12,29,21.80
2016,06,04,12,30,21.80
2016,06,04,12,31,21.80
2016,06,04,12,32,21.80
2016,06,04,12,33,21.80
2016,06,04,12,34,21.80
2016,06,04,12,35,21.80
2016,06,04,12,36,21.70
2016,06,04,12,37,21.70
2016,06,04,12,38,21.70
2016,06,04,12,39,21.70
2016,06,04,12,40,21.80
2016,06,04,12,41,22.00
2016,06,04,12,42,22.10
2016,06,04,12,43,22.30
2016,06,04,12,44,22.40
2016,06,04,12,45,22.60
2016,06,04,12,46,22.60
2016,06,04,12,47,22.70
2016,06,04,12,48,22.70
2016,06,04,12,49,22.70
2016,06,04,12,50,22.70
2016,06,04,12,51,22.80
2016,06,04,12,52,22.80
2016,06,04,12,53,22.90
2016,06,04,12,54,22.80
2016,06,04,12,55,22.80
2016,06,04,12,56,22.80
2016,06,04,12,57,22.90
2016,06,04,12,58,22.90
2016,06,04,12,59,22.90
2016,06,04,13,00,22.90
2016,06,04,13,01,23.00
2016,06,04,13,02,23.10
2016,06,04,13,03,23.20
2016,06,04,13,04,23.30
2016,06,04,13,05,23.30
2016,06,04,13,06,23.30
2016,06,04,13,07,23.40
2016,06,04,13,08,23.30
2016,06,04,13,09,23.30
2016,06,04,13,10,23.30
2016,06,04,13,11,23.30
2016,06,04,13,12,23.30
2016,06,04,13,13,23.20
2016,06,04,13,14,23.20
2016,06,04,13,15,23.10
2016,06,04,13,16,23.00
2016,06,04,13,17,22.90
2016,06,04,13,18,22.80
2016,06,04,13,19,22.90
2016,06,04,13,20,22.90
2016,06,04,13,21,23.00
2016,06,04,13,22,23.00
2016,06,04,13,23,23.10
2016,06,04,13,24,23.10
2016,06,04,13,25,23.00
2016,06,04,13,26,23.00
2016,06,04,13,27,22.90
2016,06,04,13,28,23.00
2016,06,04,13,29,23.00
2016,06,04,13,30,23.10
2016,06,04,13,31,23.10
2016,06,04,13,32,23.10
2016,06,04,13,33,23.10
2016,06,04,13,34,23.10
2016,06,04,13,35,23.00
2016,06,04,13,36,23.00
2016,06,04,13,37,23.10
2016,06,04,13,38,23.10
2016,06,04,13,39,23.30
2016,06,04,13,40,23.40
2016,06,04,13,41,23.50
2016,06,04,13,42,23.60
2016,06,04,13,43,23.70
2016,06,04,13,44,23.80
2016,06,04,13,45,23.90
2016,06,04,13,46,23.90
2016,06,04,13,47,23.90
2016,06,04,13,48,23.90
2016,06,04,13,49,23.90
2016,06,04,13,50,23.80
2016,06,04,13,51,23.80
2016,06,04,13,52,23.90
2016,06,04,13,53,24.00
2016,06,04,13,54,24.10
2016,06,04,13,55,24.20
2016,06,04,13,56,24.30
2016,06,04,13,57,24.30
2016,06,04,13,58,24.40
2016,06,04,13,59,24.40
2016,06,04,14,00,24.30
2016,06,04,14,01,24.30
2016,06,04,14,02,24.30
2016,06,04,14,03,24.30
2016,06,04,14,04,24.20
2016,06,04,14,05,24.20
2016,06,04,14,06,24.10
2016,06,04,14,07,24.00
2016,06,04,14,08,24.00
2016,06,04,14,09,24.10
2016,06,04,14,10,24.20
2016,06,04,14,11,24.30
2016,06,04,14,12,24.30
2016,06,04,14,13,24.40
2016,06,04,14,14,24.50
2016,06,04,14,15,24.40
2016,06,04,14,16,24.40
2016,06,04,14,17,24.30
2016,06,04,14,18,24.30
2016,06,04,14,19,24.30
2016,06,04,14,20,24.20
2016,06,04,14,21,24.20
2016,06,04,14,22,24.20
2016,06,04,14,23,24.20
2016,06,04,14,24,24.30
2016,06,04,14,25,24.40
2016,06,04,14,26,24.50
2016,06,04,14,27,24.50
2016,06,04,14,28,24.60
2016,06,04,14,29,24.70
2016,06,04,14,30,24.70
2016,06,04,14,31,24.70
2016,06,04,14,32,24.80
2016,06,04,14,33,24.80
2016,06,04,14,34,24.80
2016,06,04,14,35,24.80
2016,06,04,14,36,24.80
2016,06,04,14,37,24.80
2016,06,04,14,38,24.90
2016,06,04,14,39,24.90
2016,06,04,14,40,24.90
2016,06,04,14,41,25.00
2016,06,04,14,42,25.10
2016,06,04,14,43,25.30
2016,06,04,14,44,25.30
2016,06,04,14,45,25.30
2016,06,04,14,46,25.20
2016,06,04,14,47,25.20
2016,06,04,14,48,25.00
2016,06,04,14,49,25.00
2016,06,04,14,50,24.90
2016,06,04,14,51,24.90
2016,06,04,14,52,24.90
2016,06,04,14,53,25.00
2016,06,04,14,54,25.10
2016,06,04,14,55,25.20
2016,06,04,14,56,25.20
2016,06,04,14,57,25.10
2016,06,04,14,58,25.10
2016,06,04,14,59,25.10
2016,06,04,15,00,25.20
2016,06,04,15,01,25.20
2016,06,04,15,02,25.20
2016,06,04,15,03,25.20
2016,06,04,15,04,25.20
2016,06,04,15,05,25.20
2016,06,04,15,06,25.30
2016,06,04,15,07,25.30
2016,06,04,15,08,25.40
2016,06,04,15,09,25.40
2016,06,04,15,10,25.40
2016,06,04,15,11,25.50
2016,06,04,15,12,25.50
2016,06,04,15,13,25.50
2016,06,04,15,14,25.60
2016,06,04,15,15,25.60
2016,06,04,15,16,25.60
2016,06,04,15,17,25.60
2016,06,04,15,18,25.60
2016,06,04,15,19,25.50
2016,06,04,15,20,25.50
2016,06,04,15,21,25.60
2016,06,04,15,22,25.60
2016,06,04,15,23,25.70
2016,06,04,15,24,25.80
2016,06,04,15,25,25.80
2016,06,04,15,26,25.80
2016,06,04,15,27,25.80
2016,06,04,15,28,25.80
2016,06,04,15,29,25.80
2016,06,04,15,30,25.80
2016,06,04,15,31,25.80
2016,06,04,15,32,25.70
2016,06,04,15,33,25.70
2016,06,04,15,34,25.70
2016,06,04,15,35,25.70
2016,06,04,15,36,25.70
2016,06,04,15,37,25.70
2016,06,04,15,38,25.70
2016,06,04,15,39,25.80
2016,06,04,15,40,25.80
2016,06,04,15,41,25.90
2016,06,04,15,42,26.00
2016,06,04,15,43,26.00
2016,06,04,15,44,26.00
2016,06,04,15,45,26.00
2016,06,04,15,46,25.90
2016,06,04,15,47,25.90
2016,06,04,15,48,25.90
2016,06,04,15,49,26.00
2016,06,04,15,50,26.00
2016,06,04,15,51,26.10
2016,06,04,15,52,26.20
2016,06,04,15,53,26.30
2016,06,04,15,54,26.30
2016,06,04,15,55,26.30
2016,06,04,15,56,26.30
2016,06,04,15,57,26.30
2016,06,04,15,58,26.40
2016,06,04,15,59,26.40
2016,06,04,16,00,26.40
2016,06,04,16,01,26.50
2016,06,04,16,02,26.50
2016,06,04,16,03,26.60
2016,06,04,16,04,26.70
2016,06,04,16,05,26.80
2016,06,04,16,06,26.90
2016,06,04,16,07,27.00
2016,06,04,16,08,27.10
2016,06,04,16,09,27.10
2016,06,04,16,10,27.10
2016,06,04,16,11,27.10
2016,06,04,16,12,27.20
2016,06,04,16,13,27.30
2016,06,04,16,14,27.30
2016,06,04,16,15,27.30
2016,06,04,16,16,27.40
2016,06,04,16,17,27.50
2016,06,04,16,18,27.50
2016,06,04,16,19,27.60
2016,06,04,16,20,27.60
2016,06,04,16,21,27.60
2016,06,04,16,22,27.60
2016,06,04,16,23,27.60
2016,06,04,16,24,27.60
2016,06,04,16,25,27.60
2016,06,04,16,26,27.70
2016,06,04,16,27,27.60
2016,06,04,16,28,27.60
2016,06,04,16,29,27.60
2016,06,04,16,30,27.70
2016,06,04,16,31,27.70
2016,06,04,16,32,27.70
2016,06,04,16,33,27.70
2016,06,04,16,34,27.60
2016,06,04,16,35,27.60
2016,06,04,16,36,27.60
2016,06,04,16,37,27.60
2016,06,04,16,38,27.60
2016,06,04,16,39,27.60
2016,06,04,16,40,27.60
2016,06,04,16,41,27.60
2016,06,04,16,42,27.50
2016,06,04,16,43,27.40
2016,06,04,16,44,27.40
2016,06,04,16,45,27.30
2016,06,04,16,46,27.30
2016,06,04,16,47,27.30
2016,06,04,16,48,27.40
2016,06,04,16,49,27.40
2016,06,04,16,50,27.40
2016,06,04,16,51,27.40
2016,06,04,16,52,27.40
2016,06,04,16,53,27.40
2016,06,04,16,54,27.30
2016,06,04,16,55,27.30
2016,06,04,16,56,27.30
2016,06,04,16,57,27.30
2016,06,04,16,58,27.40
2016,06,04,16,59,27.40
2016,06,04,17,00,27.50
2016,06,04,17,01,27.50
2016,06,04,17,02,27.40
2016,06,04,17,03,27.30
2016,06,04,17,04,27.20
2016,06,04,17,05,27.10
2016,06,04,17,06,27.10
2016,06,04,17,07,27.00
2016,06,04,17,08,26.90
2016,06,04,17,09,27.00
2016,06,04,17,10,27.10
2016,06,04,17,11,27.20
2016,06,04,17,12,27.20
2016,06,04,17,13,27.20
2016,06,04,17,14,27.20
2016,06,04,17,15,27.10
2016,06,04,17,16,27.10
2016,06,04,17,17,27.20
2016,06,04,17,18,27.20
2016,06,04,17,19,27.20